NKS2121 KSAN-KSLC

Flight info

Callsign NKS2121
Flight time N/A
Altitude 38000
Route ZZOOO4 MTBAL CADEZ HAKMN Q73 LAKRR MLF QWENN6
Aircraft A20N/M-SDE2E3FGHIRWXY/LB1

Departure

Time 2026-04-23 03:27
Airport San Diego International Airport (KSAN)

Arrival

Time N/A
Airport Salt Lake City International Airport (KSLC)
Time Latitude Longitude Altitude Speed Heading
2026-04-23 03:12 32.73347 -117.20059 29 ft 0 kts 263°
2026-04-23 03:19 32.73348 -117.20043 29 ft 2 kts 263°
2026-04-23 03:19 32.73350 -117.20023 29 ft 2 kts 235°
2026-04-23 03:20 32.73352 -117.20021 29 ft 0 kts 222°
2026-04-23 03:20 32.73358 -117.20009 29 ft 2 kts 274°
2026-04-23 03:20 32.73352 -117.19993 29 ft 2 kts 340°
2026-04-23 03:20 32.73349 -117.19991 29 ft 0 kts 354°
2026-04-23 03:21 32.73375 -117.19989 30 ft 10 kts
2026-04-23 03:22 32.73436 -117.19973 30 ft 8 kts 26°
2026-04-23 03:22 32.73467 -117.19924 30 ft 11 kts 86°
2026-04-23 03:22 32.73461 -117.19857 30 ft 7 kts 98°
2026-04-23 03:22 32.73451 -117.19801 30 ft 15 kts 103°
2026-04-23 03:23 32.73424 -117.19662 29 ft 18 kts 106°
2026-04-23 03:23 32.73379 -117.19482 30 ft 17 kts 107°
2026-04-23 03:23 32.73345 -117.19346 27 ft 18 kts 105°
2026-04-23 03:23 32.73312 -117.19199 27 ft 18 kts 105°
2026-04-23 03:24 32.73282 -117.19061 29 ft 16 kts 105°
2026-04-23 03:24 32.73260 -117.18969 29 ft 18 kts 107°
2026-04-23 03:24 32.73226 -117.18832 31 ft 16 kts 107°
2026-04-23 03:24 32.73193 -117.18717 31 ft 13 kts 107°
2026-04-23 03:25 32.73157 -117.18577 30 ft 21 kts 107°
2026-04-23 03:25 32.73116 -117.18402 28 ft 22 kts 104°
2026-04-23 03:25 32.73075 -117.18236 27 ft 22 kts 107°
2026-04-23 03:25 32.73100 -117.18124 29 ft 10 kts 351°
2026-04-23 03:26 32.73156 -117.18148 27 ft 5 kts 319°
2026-04-23 03:26 32.73164 -117.18165 28 ft 6 kts 295°
2026-04-23 03:26 32.73253 -117.18501 29 ft 79 kts 283°
2026-04-23 03:26 32.73509 -117.19439 53 ft 153 kts 290°
2026-04-23 03:27 32.73831 -117.20709 737 ft 165 kts 287°
2026-04-23 03:27 32.74143 -117.22059 1643 ft 172 kts 288°
2026-04-23 03:27 32.74486 -117.23527 2285 ft 201 kts 288°
2026-04-23 03:27 32.74886 -117.25207 2983 ft 219 kts 288°
2026-04-23 03:28 32.75306 -117.26965 4023 ft 222 kts 287°
2026-04-23 03:28 32.75730 -117.28738 5069 ft 225 kts 287°
2026-04-23 03:28 32.76179 -117.30612 5518 ft 254 kts 286°
2026-04-23 03:28 32.76481 -117.32852 5548 ft 297 kts 270°
2026-04-23 03:29 32.75892 -117.35351 5661 ft 331 kts 242°
2026-04-23 03:29 32.74381 -117.37250 5925 ft 307 kts 213°
2026-04-23 03:29 32.72433 -117.37933 6204 ft 284 kts 182°
2026-04-23 03:29 32.70526 -117.37277 6484 ft 289 kts 148°
2026-04-23 03:30 32.69189 -117.35623 6753 ft 273 kts 124°
2026-04-23 03:30 32.68177 -117.33717 7014 ft 273 kts 122°
2026-04-23 03:30 32.67177 -117.31797 7280 ft 275 kts 123°
2026-04-23 03:30 32.66138 -117.29881 7547 ft 276 kts 124°
2026-04-23 03:31 32.65071 -117.27977 7816 ft 278 kts 125°
2026-04-23 03:31 32.63975 -117.26049 8091 ft 291 kts 123°
2026-04-23 03:31 32.63146 -117.23880 8353 ft 289 kts 103°
2026-04-23 03:31 32.62807 -117.21474 8623 ft 302 kts 96°
2026-04-23 03:32 32.62585 -117.18970 8894 ft 308 kts 94°
2026-04-23 03:32 32.62374 -117.16433 9179 ft 311 kts 95°
2026-04-23 03:32 32.62155 -117.13867 9460 ft 314 kts 95°
2026-04-23 03:32 32.62037 -117.11279 9739 ft 315 kts 85°
2026-04-23 03:33 32.62440 -117.08739 10025 ft 314 kts 69°
2026-04-23 03:33 32.63201 -117.06228 10277 ft 335 kts 66°
2026-04-23 03:33 32.64080 -117.03581 10528 ft 352 kts 65°
2026-04-23 03:33 32.64986 -117.00860 10785 ft 357 kts 65°
2026-04-23 03:34 32.65891 -116.98111 11053 ft 359 kts 66°
2026-04-23 03:34 32.66555 -116.95244 11303 ft 364 kts 80°
2026-04-23 03:34 32.66756 -116.92240 11569 ft 367 kts 86°
2026-04-23 03:34 32.66831 -116.89207 11840 ft 369 kts 87°
2026-04-23 03:35 32.66891 -116.86160 12115 ft 371 kts 87°
2026-04-23 03:35 32.66969 -116.83087 12391 ft 374 kts 84°
2026-04-23 03:35 32.67372 -116.80052 12657 ft 372 kts 71°
2026-04-23 03:35 32.68373 -116.77247 12930 ft 367 kts 53°
2026-04-23 03:36 32.69933 -116.74905 13217 ft 358 kts 37°
2026-04-23 03:36 32.71902 -116.73151 13509 ft 352 kts 22°
2026-04-23 03:36 32.74102 -116.71911 13795 ft 350 kts 16°
2026-04-23 03:36 32.76366 -116.70814 14058 ft 351 kts 14°
2026-04-23 03:37 32.78640 -116.69728 14316 ft 354 kts 14°
2026-04-23 03:37 32.80898 -116.68642 14570 ft 356 kts 14°
2026-04-23 03:37 32.83196 -116.67529 14827 ft 358 kts 15°
2026-04-23 03:37 32.85507 -116.66402 15090 ft 360 kts 15°
2026-04-23 03:38 32.87828 -116.65269 15341 ft 362 kts 15°
2026-04-23 03:38 32.90170 -116.64123 15610 ft 364 kts 15°
2026-04-23 03:38 32.92519 -116.62973 15878 ft 366 kts 15°
2026-04-23 03:38 32.94877 -116.61815 16141 ft 368 kts 15°
2026-04-23 03:39 32.97254 -116.60647 16392 ft 370 kts 15°
2026-04-23 03:39 32.99640 -116.59474 16672 ft 372 kts 15°
2026-04-23 03:39 33.02038 -116.58262 16947 ft 375 kts 16°
2026-04-23 03:39 33.04441 -116.57013 17222 ft 378 kts 17°
2026-04-23 03:40 33.06856 -116.55752 17486 ft 380 kts 17°
2026-04-23 03:40 33.09278 -116.54484 17753 ft 381 kts 17°
2026-04-23 03:40 33.11711 -116.53211 18047 ft 383 kts 17°
2026-04-23 03:40 33.14162 -116.51929 18334 ft 385 kts 17°
2026-04-23 03:41 33.16624 -116.50639 18588 ft 387 kts 17°
2026-04-23 03:41 33.19102 -116.49342 18815 ft 389 kts 17°
2026-04-23 03:41 33.21586 -116.48040 19068 ft 391 kts 17°
2026-04-23 03:41 33.24087 -116.46728 19320 ft 393 kts 17°
2026-04-23 03:42 33.26561 -116.45430 19579 ft 395 kts 16°
2026-04-23 03:42 33.29111 -116.44096 19862 ft 396 kts 16°
2026-04-23 03:42 33.31640 -116.42770 20122 ft 398 kts 16°
2026-04-23 03:42 33.34147 -116.41453 20387 ft 400 kts 16°
2026-04-23 03:43 33.36681 -116.40051 20657 ft 404 kts 20°
2026-04-23 03:43 33.39099 -116.38266 20921 ft 414 kts 30°
2026-04-23 03:43 33.41273 -116.35945 21147 ft 424 kts 41°
2026-04-23 03:43 33.43147 -116.33182 21427 ft 430 kts 48°
2026-04-23 03:44 33.44905 -116.30274 21711 ft 432 kts 49°
2026-04-23 03:44 33.46651 -116.27331 22013 ft 434 kts 49°
2026-04-23 03:44 33.48401 -116.24376 22278 ft 436 kts 49°
2026-04-23 03:44 33.50168 -116.21410 22559 ft 439 kts 49°
2026-04-23 03:45 33.51946 -116.18435 22841 ft 440 kts 49°
2026-04-23 03:45 33.53732 -116.15445 23142 ft 442 kts 49°
2026-04-23 03:45 33.55528 -116.12437 23446 ft 445 kts 49°
2026-04-23 03:45 33.57333 -116.09411 23707 ft 447 kts 49°
2026-04-23 03:46 33.59152 -116.06371 23954 ft 449 kts 47°
2026-04-23 03:46 33.61132 -116.03501 24208 ft 446 kts 41°
2026-04-23 03:46 33.63281 -116.00828 24469 ft 445 kts 38°
2026-04-23 03:46 33.65512 -115.98239 24726 ft 446 kts 37°
2026-04-23 03:47 33.67775 -115.95689 24981 ft 447 kts 36°
2026-04-23 03:47 33.70056 -115.93134 25258 ft 449 kts 36°
2026-04-23 03:47 33.72338 -115.90566 25518 ft 451 kts 37°
2026-04-23 03:47 33.74627 -115.87966 25769 ft 453 kts 37°
2026-04-23 03:48 33.76914 -115.85350 26033 ft 455 kts 37°
2026-04-23 03:48 33.79207 -115.82712 26302 ft 457 kts 37°
2026-04-23 03:48 33.81480 -115.80088 26570 ft 460 kts 37°
2026-04-23 03:48 33.83790 -115.77416 26846 ft 462 kts 37°
2026-04-23 03:49 33.86138 -115.74697 27117 ft 464 kts 37°
2026-04-23 03:49 33.88437 -115.72033 27394 ft 466 kts 37°
2026-04-23 03:49 33.90807 -115.69284 27681 ft 468 kts 37°
2026-04-23 03:49 33.93155 -115.66560 27968 ft 470 kts 37°
2026-04-23 03:50 33.95486 -115.63855 28262 ft 472 kts 38°
2026-04-23 03:50 33.97858 -115.61100 28561 ft 475 kts 37°
2026-04-23 03:50 34.00240 -115.58331 28849 ft 476 kts 38°
2026-04-23 03:50 34.02627 -115.55552 29145 ft 478 kts 37°
2026-04-23 03:51 34.05023 -115.52761 29444 ft 480 kts 37°
2026-04-23 03:51 34.07429 -115.49957 29740 ft 482 kts 38°
2026-04-23 03:51 34.09844 -115.47134 30032 ft 485 kts 38°
2026-04-23 03:51 34.12267 -115.44297 30293 ft 487 kts 37°
2026-04-23 03:52 34.14710 -115.41443 30554 ft 489 kts 37°
2026-04-23 03:52 34.17193 -115.38632 30813 ft 488 kts 32°
2026-04-23 03:52 34.19928 -115.36251 31083 ft 481 kts 22°
2026-04-23 03:52 34.22895 -115.34497 31350 ft 470 kts 11°
2026-04-23 03:53 34.25999 -115.33416 31645 ft 461 kts
2026-04-23 03:53 34.29129 -115.32630 31915 ft 459 kts
2026-04-23 03:53 34.32269 -115.31963 32191 ft 457 kts 360°
2026-04-23 03:53 34.35402 -115.31359 32474 ft 456 kts 359°
2026-04-23 03:54 34.38533 -115.30773 32752 ft 455 kts 359°
2026-04-23 03:54 34.41661 -115.30183 33037 ft 455 kts 359°
2026-04-23 03:54 34.44786 -115.29584 33326 ft 454 kts 359°
2026-04-23 03:54 34.47902 -115.28974 33617 ft 454 kts 359°
2026-04-23 03:55 34.51015 -115.28357 33942 ft 453 kts 359°
2026-04-23 03:55 34.54121 -115.27734 34200 ft 452 kts 359°
2026-04-23 03:55 34.57227 -115.27109 34462 ft 452 kts 359°
2026-04-23 03:55 34.60330 -115.26484 34720 ft 452 kts 358°
2026-04-23 03:56 34.63431 -115.25859 34982 ft 452 kts 358°
2026-04-23 03:56 34.66532 -115.25233 35245 ft 451 kts 358°
2026-04-23 03:56 34.69628 -115.24608 35523 ft 451 kts 358°
2026-04-23 03:56 34.72719 -115.23983 35793 ft 450 kts 357°
2026-04-23 03:57 34.75805 -115.23358 36118 ft 449 kts 357°
2026-04-23 03:57 34.78836 -115.22744 36391 ft 447 kts 356°
2026-04-23 03:57 34.81942 -115.22114 36689 ft 445 kts 356°
2026-04-23 03:57 34.84992 -115.21495 36974 ft 443 kts 356°
2026-04-23 03:58 34.88027 -115.20878 37266 ft 441 kts 356°
2026-04-23 03:58 34.91003 -115.20272 37568 ft 438 kts 355°
2026-04-23 03:58 34.94000 -115.19661 37859 ft 435 kts 355°
2026-04-23 03:58 34.96973 -115.19054 38160 ft 432 kts 355°
2026-04-23 03:59 34.99924 -115.18452 38523 ft 428 kts 355°
2026-04-23 03:59 35.02854 -115.17853 38764 ft 425 kts 355°
2026-04-23 03:59 35.08667 -115.16673 38953 ft 422 kts 355°
2026-04-23 04:00 35.14503 -115.15501 38975 ft 428 kts 355°
2026-04-23 04:00 35.20424 -115.14307 38986 ft 434 kts 355°
2026-04-23 04:01 35.26437 -115.13088 38967 ft 442 kts 356°
2026-04-23 04:01 35.32555 -115.11842 38969 ft 449 kts 356°
2026-04-23 04:02 35.38711 -115.10579 38969 ft 451 kts 356°
2026-04-23 04:02 35.44889 -115.09281 38964 ft 453 kts 359°
2026-04-23 04:03 35.47975 -115.08207 38988 ft 468 kts
2026-04-23 04:03 35.50963 -115.06465 38971 ft 484 kts 21°
2026-04-23 04:03 35.53709 -115.03961 38968 ft 501 kts 34°
2026-04-23 04:03 35.56209 -115.00952 38966 ft 505 kts 37°
2026-04-23 04:04 35.60960 -114.94523 38951 ft 509 kts 40°
2026-04-23 04:04 35.65633 -114.87974 38952 ft 509 kts 40°
2026-04-23 04:05 35.70332 -114.81454 38953 ft 509 kts 39°
2026-04-23 04:05 35.75053 -114.74973 38896 ft 509 kts 39°
2026-04-23 04:06 35.79784 -114.68482 38906 ft 509 kts 39°
2026-04-23 04:06 35.84511 -114.61985 38853 ft 509 kts 39°
2026-04-23 04:07 35.89235 -114.55477 38869 ft 509 kts 39°